Location: *
(34.6903°N, 135.5184°E)
Time: 15:12:29
(UTC+00:00)

Cosmos 1743 - Pass Details

Date: 22 September 2019
Orbit: 512 x 527 km, 82.6° (Epoch: 13 October)

Event Time Altitude Azimuth Distance (km) Brightness Sun altitude
Rises 19:48:36 0° 353° (N) 2,668 6.4 -12.6°
Reaches altitude 10° 19:50:45 10° 354° (N) 1,774 5.4 -12.2°
Maximum altitude 19:54:39 88° 78° (ENE) 531 2.7 -11.4°
Drops below altitude 10° 19:58:31 10° 174° (S) 1,755 5.4 -10.6°
Sets 20:00:38 0° 174° (S) 2,637 6.3 -10.1°
